Regional Weather Roundup
Issued by NWS Midland/Odessa, TX

Skip options and go directly to product.
Home | Oldest Version | Next Version | Current Version | All | Text Only | Save Text | Print | Product List | Glossary On

Skip product version selection by date and time.   
327
ASUS44 KMAF 010101
RWRMAF
MIDLAND AREA WEATHER ROUNDUP
NATIONAL WEATHER SERVICE MIDLAND TX
800 PM CDT THU JUN 30 2016

...IN SOUTHWEST TEXAS AND SOUTHEAST NEW MEXICO...

CITY           SKY/WX    TMP DP  RH WIND       PRES   REMARKS
ALPINE         SUNNY     84  49  29 SE10      30.13R
ANDREWS        FAIR      91  55  29 SE9G17    30.01R
ARTESIA        CLOUDY    93  48  21 S16       29.99R
BIG SPRING     MOSUNNY   90  58  34 SE12      30.02R
CARLSBAD       CLOUDY    92  48  22 SE10      29.97R
DRYDEN           N/A     93  56  28 E13       29.93R
FORT STOCKTON  SUNNY     90  54  29 SE13      29.98R
GUAD PASS      CLOUDY    82  48  30 E17       30.15S
HOBBS          SUNNY     90  48  24 SE15      30.03R
MARFA          SUNNY    N/A N/A N/A E13       30.11R
MIDLAND AIRPK  SUNNY     92  53  26 SE10      29.99S
MIDLAND INTL   SUNNY     92  57  30 SE15      29.99R
ODESSA         MOSUNNY   91  57  31 S10       30.00R
PECOS          SUNNY     93  53  25 E17       29.93R
PRESIDIO       FAIR      96  52  22 E8G17     29.92R
SEMINOLE       MOSUNNY   91  51  25 SE8       30.02S
SNYDER           N/A     79  61  53 N13       30.03R
WINK           SUNNY     89  58  34 SE14      29.96R
$$
...OTHER STATIONS IN TEXAS...

CITY           SKY/WX    TMP DP  RH WIND       PRES   REMARKS
ABILENE        PTCLDY    87  64  46 E7        29.98R
AMARILLO       TSTM      70  61  73 SW13      30.09R
AUSTIN         PTCLDY    90  69  50 E7        29.92S
BROWNSVILLE    PTCLDY    86  74  67 SE10      29.91R
CORPUS CHRISTI MOCLDY    86  74  67 SE8       29.90R
DALLAS FTW     PTCLDY    91  64  40 SE14      29.92R
DEL RIO        CLEAR     95  59  30 E10       29.87R
EL PASO        PTSUNNY   93  43  17 SE10      29.97S
HOUSTON INT    PTCLDY    88  73  61 SE10      29.91F
LUBBOCK        CLOUDY    86  58  38 SE10      30.03R
SAN ANGELO     CLEAR    N/A N/A N/A SE6       29.95R
SAN ANTONIO    PTCLDY    89  68  49 E12       29.93R
WACO           CLEAR     90  66  45 SE7       29.93S
WICHITA FALLS  NOT AVBL
$$
...OTHER LOCATIONS IN NEW MEXICO...

CITY           SKY/WX    TMP DP  RH WIND       PRES   REMARKS
ALAMAGORDO     MOSUNNY   90  45  20 S20       30.02R
ALBUQUERQUE    PTSUNNY   87  44  22 NW8       30.07F
CANNON AFB     CLOUDY    80  57  45 E18G24    30.07R
CLOVIS         CLOUDY    73  59  60 SE18      30.08S
HOLLOMAN AFB   SUNNY     91  46  21 S15       29.99R
ROSWELL        CLOUDY    93  45  19 S17       29.99R
RUIDOSO          N/A     77  39  25 SE8       30.25S
SANTA FE       CLOUDY    82  39  21 SE12      30.17S
TRUTH OR CONSE PTSUNNY   91  35  13 S12       30.03F
TUCUMCARI      MOSUNNY   80  54  40 E15       30.04R
$$

USA.gov is the U.S. government's official web portal to all federal, state and local government web resources and services.